weather.gov     
National Weather Service

Regional Weather Roundup
NWS Homepage
This page is being discontinued on March 12, 2014.
The same data is available at this site. Please update your bookmarks.
Thank you, and we apologize for the inconvenience.
Please send an email to SR-SRH.Webmaster@noaa.gov with any concerns.


Current Version
Previous Version:    01  02  03  04  05  06  07  08  09  10  11  12  13  14  15  16  17  18  19  20  21  22  23  24  25  26  27  
[Printable]
075
ASUS41 KALY 211710
RWRALY

NEW YORK STATE HOURLY WEATHER ROUNDUP
NATIONAL WEATHER SERVICE ALBANY NY
100 PM EDT TUE OCT 21 2014

NOTE: "FAIR" INDICATES FEW OR NO CLOUDS BELOW 12,000 FEET WITH NO
SIGNIFICANT WEATHER AND/OR NO OBSTRUCTIONS TO VISIBILITY.

NYZ032-033-038>043-046>054-057>066-NYZ062>081-211800-
EAST


CITY           SKY/WX    TMP DP  RH WIND       PRES   REMARKS
ALBANY         LGT RAIN  52  49  89 CALM      29.92F FOG
GLENS FALLS    LGT RAIN  50  47  89 NE5       29.95S FOG
POUGHKEEPSIE   CLOUDY    53  49  86 N6        29.90F
NEWBURGH       LGT RAIN  52  52 100 N6        29.91F
MONTGOMERY     CLOUDY    52  49  89 NE9       29.88F
WHITE PLAINS   PTSUNNY   63  49  60 SE9G17    29.86F
ISLIP          MOSUNNY   67  52  58 SE13      29.86F
NEW YORK CITY  PTSUNNY   66  48  52 SE9       29.85F
CENTRAL PARK   PTSUNNY   64  49  57 CALM      29.88F
$$

NYZ005>009-017-018-044>046-055-056-211800-
CENTRAL


CITY           SKY/WX    TMP DP  RH WIND       PRES   REMARKS
FULTON         CLOUDY    52  46  80 VRB6      29.87S
SYRACUSE       DRIZZLE   50  47  90 CALM      29.87S
ROME           CLOUDY    52  46  80 E8        29.90S
ELMIRA         CLOUDY    54  50  86 W3        29.85S
BINGHAMTON     CLOUDY    52  46  80 S6        29.85F
MONTICELLO     CLOUDY    48  48 100 E9        29.90F
$$

NYZ026>034-041>043-211800-
NORTH


CITY           SKY/WX    TMP DP  RH WIND       PRES   REMARKS
WATERTOWN      LGT RAIN  53  47  79 NE12      29.90S
FORT DRUM      NOT AVBL
MASSENA        CLOUDY    45  42  89 NE13      30.00S
SARANAC LAKE   LGT RAIN  44  42  93 NE7       29.93R FOG
PLATTSBURGH    LGT RAIN  48  46  93 N10       29.99S FOG
$$

NYZ001>004-010>016-019>021-211800-
WEST


CITY           SKY/WX    TMP DP  RH WIND       PRES   REMARKS
NIAGARA FALLS  CLOUDY    51  48  89 N7        29.87R FOG
BUFFALO        LGT RAIN  53  48  83 N6        29.86S
DUNKIRK        CLOUDY    54  47  77 W9G17     29.87S
JAMESTOWN      PTSUNNY   48  45  87 NW5       29.87S
WELLSVILLE     CLOUDY    52  46  80 NE6       29.86S
ROCHESTER      LGT RAIN  53  50  89 N6        29.86R FOG
PENN YAN       CLOUDY    55  49  80 CALM      29.85S
$$

             KEY
       WCI = WIND CHILL INDEX
       VSB = VISIBILITY
       HX  = HEAT INDEX
$$




U.S. Dept. of Commerce
NOAA National Weather Service
1325 East West Highway
Silver Spring, MD 20910
E-mail: w-nws.webmaster@noaa.gov
Page last modified: May 16, 2007
NATIONAL WEATHER SERVICE: for Safety, for Work, for Fun - FOR LIFE